ASTROCAST-0303

导读 | 星芒AI

ASTROCAST-0303 是由 ASTROcast 公司部署的一颗低轨物联网(IoT)卫星,旨在为全球范围内的远程设备提供低功耗、广覆盖的双向通信服务。该卫星运行于低地球轨道,支持传感器数据的实时回传,适用于环境监测、物流追踪和农业管理等领域。作为 ASTROcast 卫星网络的一部分,ASTROCAST-0303 有助于构建可持续的全球物联网通信基础设施。

基本信息
目录编号:
54368
目录名称:
ASTROCAST-0303
国际标识:
2022-158H
轨道中心:
EARTH
卫星名称:
ASTROCAST-0303
卫星全名:
--
卫星状态:
已陨落 最后检测时间 2024-12-03
发射日期:
2022-11-26 UTC
国别 :
瑞士 (CH)
星等 :
--
轨道信息
数据来源 国际轨道数据
星历时间: 2024-12-02T08:38:33+0800
轨道信息已过期331天
半长轴: 6536.454km
偏心率: 0.0014772
轨道倾角: 97.410°
近地点辐角 306.721°
升交点赤经 85.563°
平近点角 53.273°
近地点: 148.663km
远地点: 167.975km
周期: 87.654分钟
每日圈数: 16.428183
详细信息
使用方式:
暂无